Location: Newark
(45.2500°N, 7.5833°E)
Time: 21:45:00
(UTC+00:00)

Tiros 1 despin weight - Pass Details

Date: 29 January 2020
Orbit: 594 x 642 km, 48.2° (Epoch: 20 February)

Event Time Altitude Azimuth Distance (km) Brightness Sun altitude
Rises 10:43:25 0° 257° (WSW) 2,852 ? 25.3°
Reaches altitude 10° 10:45:42 10° 259° (W) 1,957 ? 25.4°
Maximum altitude 10:50:11 75° 345° (NNW) 641 ? 25.6°
Drops below altitude 10° 10:54:47 10° 71° (ENE) 1,992 ? 25.8°
Sets 10:57:07 0° 73° (ENE) 2,908 ? 25.9°
